Location: Ecklingerode
(51.5036°N, 10.3122°E)
Time: 07:27:59
(UTC+00:00)

SJ-11-01 - Pass Details

Date: 29 October 2020
Orbit: 685 x 700 km, 98.0° (Epoch: 01 December)

Event Time Altitude Azimuth Distance (km) Brightness Sun altitude
Exits shadow 17:35:47 - 144° (SE) 2,238 6.6 -15.9°
Reaches altitude 10° 17:36:03 10° 143° (SE) 2,132 6.5 -15.9°
Maximum altitude 17:40:32 49° 69° (ENE) 884 4.4 -16.6°
Drops below altitude 10° 17:45:05 10° 355° (N) 2,152 6.9 -17.3°
Sets 17:47:23 0° 350° (N) 3,076 7.8 -17.7°
